Regional Weather Roundup
Issued by NWS

Home | Current Version | Previous Version | Text Only | Print | Product List | Glossary Off
Versions: 1 2 3 4 5 6 7 8 9 10 11 12 13 14 15 16 17 18 19 20 21 22 23 24 25 26 27 28 29 30 31 32 33 34 35 36 37 38 39 40 41 42 43 44 45 46 47 48 49 50

000
ASUS43 KTOP 061208
RWRKS

WEATHER ROUNDUP FOR KANSAS
NATIONAL WEATHER SERVICE GOODLAND KS
600 AM CST TUE DEC 06 2016

NOTE:  "FAIR" INDICATES FEW OR NO CLOUDS BELOW 12,000 FEET WITH NO
SIGNIFICANT WEATHER AND/OR OBSTRUCTIONS TO VISIBILITY.

KSZ001>006-013>018-027>032-041>047-061300-
NORTHWEST KANSAS

CITY           SKY/WX    TMP DP  RH WIND       PRES   REMARKS
GOODLAND       CLOUDY    11   5  77 NW13      30.02R WCI  -4
6HR MIN TEMP:  10; 6HR MAX TEMP:  20;

HAYS           CLEAR     24  15  68 NW15      30.04R WCI  11
HILL CITY      MOCLDY    22  12  65 NW12      30.04R WCI  10
6HR MIN TEMP:  21; 6HR MAX TEMP:  31;

RUSSELL        CLEAR     20  16  84 NW8       30.02S
6HR MIN TEMP:  20; 6HR MAX TEMP:  34;

$$

KSZ061>065-074>080-084>089-061300-
SOUTHWEST KANSAS

CITY           SKY/WX    TMP DP  RH WIND       PRES   REMARKS
DODGE CITY     PTCLDY    22  15  75 N12       30.02R WCI  10
6HR MIN TEMP:  22; 6HR MAX TEMP:  33;

ELKHART          N/A     21   2  44 NW10        N/A  WCI  10
GARDEN CITY    CLOUDY    18  10  71 NW10      30.03R WCI   6
6HR MIN TEMP:  18; 6HR MAX TEMP:  31;

GREAT BEND     CLOUDY    25  18  74 NW10      30.03R WCI  15
LIBERAL        CLOUDY    25  10  54 NW9       30.05R
PRATT          PTCLDY    24  17  73 N13       30.03R WCI  12
6HR MIN TEMP:  24; 6HR MAX TEMP:  36;

$$

KSZ066>073-081>083-090>101-061300-
SOUTHEAST KANSAS

CITY           SKY/WX    TMP DP  RH WIND       PRES   REMARKS
CHANUTE        PTCLDY    36  30  79 N16G25    29.90R WCI  26
6HR MIN TEMP:  30; 6HR MAX TEMP:  39;

COFFEYVILLE    CLOUDY    39  36  89 N22G29    29.90R WCI  29
6HR MIN TEMP:  31; 6HR MAX TEMP:  40;

HUTCHINSON     CLEAR     29  18  63 N12         N/A  WCI  19
6HR MIN TEMP:  29; 6HR MAX TEMP:  40;

MEDICINE LODGE   N/A     29  18  63 N14G21    30.02R WCI  18
NEWTON         CLEAR     28  21  75 N18G25    29.98R WCI  15
PARSONS        CLOUDY    38  33  82 N16G25    29.91R WCI  29
6HR MIN TEMP:  28; 6HR MAX TEMP:  39;

WICHITA INTL   PTCLDY    31  20  63 N17G28    29.98R WCI  19
6HR MIN TEMP:  31; 6HR MAX TEMP:  40;

WICHITA JABRA  CLEAR     29  21  72 N21G26    29.97R WCI  16
6HR MIN TEMP:  29; 6HR MAX TEMP:  38;

WICHITA MCCONL CLEAR     31  20  65 N20G25    29.97R WCI  18
WINFIELD       PTCLDY    32  24  72 N17G28    29.97R WCI  21
6HR MIN TEMP:  29; 6HR MAX TEMP:  38;

$$

KSZ007>012-019>026-033>040-048>060-102>105-061300-
NORTHEAST KANSAS

CITY           SKY/WX    TMP DP  RH WIND       PRES   REMARKS
CONCORDIA      CLEAR     25  17  72 NW9       30.02R
6HR MIN TEMP:  25; 6HR MAX TEMP:  34;

EMPORIA        PTCLDY    31  22  69 N17G29    29.95R WCI  19
6HR MIN TEMP:  30; 6HR MAX TEMP:  38;

LAWRENCE       CLOUDY    32  25  75 NW20      29.95R WCI  20
6HR MIN TEMP:  28; 6HR MAX TEMP:  39;

MANHATTAN      PTCLDY    31  18  58 VRB6      30.01R
6HR MIN TEMP:  31; 6HR MAX TEMP:  40;

MARYSVILLE     CLEAR     28  16  59 N16       30.00R WCI  17
OLATHE IND     MOCLDY    33  29  85 NW18      29.91R WCI  22
6HR MIN TEMP:  30; 6HR MAX TEMP:  38;

OLATHE EXE     CLOUDY    34  29  82 N14       29.89R WCI  25
6HR MIN TEMP:  31; 6HR MAX TEMP:  38;

SALINA         CLEAR     30  19  63 N13       30.02R WCI  20
6HR MIN TEMP:  30; 6HR MAX TEMP:  38;

TOPEKA BILLARD PTCLDY    32  23  69 NW14      29.97R WCI  22
6HR MIN TEMP:  32; 6HR MAX TEMP:  40;

TOPEKA FORBES  MOCLDY    33  22  63 NW16      29.95R WCI  23
6HR MIN TEMP:  32; 6HR MAX TEMP:  40;

$$




USA.gov is the U.S. government's official web portal to all federal, state and local government web resources and services.